RA2948G UIII-UIII

Flight info

Callsign RA2948G
Flight time 0h 42m
Altitude 18000
Route KA DCT NH DCT BD DCT IKT DCT II014
Aircraft A20N/M-SDE3FGHIRWY/LB1

Departure

Time 2026-05-08 09:05
Airport Irkutsk International Airport (UIII)

Arrival

Time 2026-05-08 09:47
Airport Irkutsk International Airport (UIII)
Time Latitude Longitude Altitude Speed Heading
2026-05-08 08:38 52.27219 104.36320 1651 ft 0 kts 200°
2026-05-08 08:55 52.27213 104.36316 1651 ft 2 kts 202°
2026-05-08 08:55 52.27195 104.36308 1651 ft 6 kts 191°
2026-05-08 08:55 52.27164 104.36365 1651 ft 8 kts 100°
2026-05-08 08:56 52.27173 104.36424 1651 ft 6 kts 106°
2026-05-08 08:56 52.27133 104.36499 1651 ft 12 kts 120°
2026-05-08 08:56 52.27095 104.36652 1651 ft 17 kts 111°
2026-05-08 08:56 52.27066 104.36774 1651 ft 14 kts 111°
2026-05-08 08:57 52.27036 104.36905 1651 ft 1 kts 109°
2026-05-08 08:57 52.27028 104.36951 1651 ft 8 kts 105°
2026-05-08 08:57 52.27002 104.37068 1651 ft 14 kts 106°
2026-05-08 08:57 52.26982 104.37232 1651 ft 19 kts 98°
2026-05-08 08:58 52.26959 104.37457 1651 ft 22 kts 114°
2026-05-08 08:58 52.26886 104.37708 1651 ft 25 kts 114°
2026-05-08 08:58 52.26855 104.37828 1651 ft 13 kts 112°
2026-05-08 08:58 52.26813 104.37996 1651 ft 19 kts 112°
2026-05-08 08:59 52.26755 104.38225 1651 ft 25 kts 113°
2026-05-08 08:59 52.26700 104.38420 1651 ft 12 kts 114°
2026-05-08 08:59 52.26657 104.38575 1651 ft 16 kts 114°
2026-05-08 08:59 52.26615 104.38732 1651 ft 18 kts 114°
2026-05-08 09:00 52.26557 104.38943 1651 ft 15 kts 114°
2026-05-08 09:00 52.26547 104.38982 1651 ft 10 kts 112°
2026-05-08 09:00 52.26510 104.39128 1651 ft 0 kts 112°
2026-05-08 09:00 52.26494 104.39194 1651 ft 12 kts 112°
2026-05-08 09:01 52.26448 104.39370 1651 ft 19 kts 113°
2026-05-08 09:01 52.26388 104.39590 1651 ft 19 kts 114°
2026-05-08 09:01 52.26349 104.39734 1651 ft 13 kts 113°
2026-05-08 09:01 52.26306 104.39894 1651 ft 17 kts 114°
2026-05-08 09:02 52.26251 104.40098 1651 ft 22 kts 113°
2026-05-08 09:02 52.26220 104.40217 1651 ft 4 kts 112°
2026-05-08 09:02 52.26196 104.40309 1651 ft 13 kts 114°
2026-05-08 09:02 52.26161 104.40444 1651 ft 14 kts 112°
2026-05-08 09:03 52.26114 104.40616 1651 ft 16 kts 114°
2026-05-08 09:03 52.26067 104.40795 1651 ft 19 kts 113°
2026-05-08 09:03 52.26022 104.40964 1651 ft 14 kts 114°
2026-05-08 09:03 52.25999 104.41125 1651 ft 13 kts 79°
2026-05-08 09:04 52.26077 104.41222 1651 ft 17 kts 23°
2026-05-08 09:04 52.26193 104.41293 1652 ft 18 kts
2026-05-08 09:04 52.26266 104.41135 1650 ft 34 kts 296°
2026-05-08 09:04 52.26535 104.40151 1669 ft 149 kts 295°
2026-05-08 09:05 52.26995 104.38440 2611 ft 171 kts 295°
2026-05-08 09:05 52.27492 104.36601 3727 ft 189 kts 296°
2026-05-08 09:05 52.28062 104.34556 4858 ft 210 kts 295°
2026-05-08 09:05 52.28650 104.32423 5988 ft 201 kts 296°
2026-05-08 09:06 52.29286 104.30192 6764 ft 240 kts 295°
2026-05-08 09:06 52.29982 104.27559 6983 ft 257 kts 294°
2026-05-08 09:06 52.30665 104.24847 7000 ft 260 kts 295°
2026-05-08 09:06 52.31744 104.22507 6999 ft 259 kts 321°
2026-05-08 09:07 52.33371 104.21299 7002 ft 261 kts 348°
2026-05-08 09:07 52.35186 104.21509 6999 ft 268 kts 15°
2026-05-08 09:07 52.36787 104.23102 7001 ft 275 kts 38°
2026-05-08 09:07 52.38150 104.25325 6997 ft 277 kts 43°
2026-05-08 09:08 52.39457 104.27650 7001 ft 277 kts 44°
2026-05-08 09:08 52.40769 104.29946 6997 ft 276 kts 43°
2026-05-08 09:08 52.42093 104.32187 6994 ft 275 kts 42°
2026-05-08 09:08 52.43450 104.34421 6995 ft 276 kts 42°
2026-05-08 09:09 52.44791 104.36609 6995 ft 275 kts 41°
2026-05-08 09:09 52.46144 104.38808 6997 ft 277 kts 41°
2026-05-08 09:09 52.47509 104.41026 6992 ft 275 kts 41°
2026-05-08 09:09 52.48868 104.43234 6992 ft 275 kts 41°
2026-05-08 09:10 52.50229 104.45450 6992 ft 275 kts 41°
2026-05-08 09:10 52.51589 104.47663 6991 ft 275 kts 41°
2026-05-08 09:10 52.52946 104.49875 6989 ft 275 kts 41°
2026-05-08 09:10 52.54305 104.52092 6985 ft 275 kts 41°
2026-05-08 09:11 52.55659 104.54309 6983 ft 274 kts 41°
2026-05-08 09:11 52.57013 104.56525 6982 ft 275 kts 41°
2026-05-08 09:11 52.58391 104.58696 6980 ft 274 kts 39°
2026-05-08 09:11 52.59767 104.60869 6983 ft 276 kts 42°
2026-05-08 09:12 52.61282 104.62755 6978 ft 272 kts 22°
2026-05-08 09:12 52.63088 104.63421 6981 ft 265 kts 356°
2026-05-08 09:12 52.64838 104.62659 6972 ft 262 kts 330°
2026-05-08 09:12 52.66214 104.60729 6973 ft 261 kts 313°
2026-05-08 09:13 52.67449 104.58540 6971 ft 261 kts 313°
2026-05-08 09:13 52.68683 104.56341 6976 ft 260 kts 313°
2026-05-08 09:13 52.69912 104.54157 6975 ft 260 kts 313°
2026-05-08 09:13 52.71150 104.51965 6975 ft 262 kts 313°
2026-05-08 09:14 52.72388 104.49777 6977 ft 260 kts 313°
2026-05-08 09:14 52.73549 104.47497 6977 ft 261 kts 301°
2026-05-08 09:14 52.74140 104.44673 6975 ft 265 kts 278°
2026-05-08 09:14 52.73946 104.41663 6975 ft 268 kts 254°
2026-05-08 09:15 52.73266 104.38768 6977 ft 272 kts 251°
2026-05-08 09:15 52.72569 104.35877 6979 ft 270 kts 251°
2026-05-08 09:15 52.71874 104.32998 6979 ft 270 kts 251°
2026-05-08 09:15 52.71186 104.30126 6979 ft 270 kts 251°
2026-05-08 09:16 52.70499 104.27243 6979 ft 270 kts 251°
2026-05-08 09:16 52.69826 104.24416 6978 ft 270 kts 251°
2026-05-08 09:16 52.69139 104.21526 6981 ft 270 kts 251°
2026-05-08 09:16 52.68456 104.18647 6980 ft 269 kts 251°
2026-05-08 09:17 52.67769 104.15774 6979 ft 270 kts 252°
2026-05-08 09:17 52.67078 104.12889 6982 ft 271 kts 252°
2026-05-08 09:17 52.66387 104.10005 6982 ft 271 kts 252°
2026-05-08 09:17 52.65693 104.07118 6974 ft 270 kts 252°
2026-05-08 09:18 52.65004 104.04250 6983 ft 270 kts 252°
2026-05-08 09:18 52.64312 104.01372 6981 ft 269 kts 252°
2026-05-08 09:18 52.63629 103.98537 6981 ft 270 kts 252°
2026-05-08 09:18 52.62937 103.95673 6983 ft 270 kts 252°
2026-05-08 09:19 52.62244 103.92806 6980 ft 269 kts 252°
2026-05-08 09:19 52.61561 103.89985 6978 ft 270 kts 252°
2026-05-08 09:19 52.60868 103.87118 6978 ft 269 kts 252°
2026-05-08 09:19 52.60174 103.84251 6978 ft 271 kts 252°
2026-05-08 09:20 52.59476 103.81373 6978 ft 271 kts 251°
2026-05-08 09:20 52.58780 103.78508 6978 ft 269 kts 252°
2026-05-08 09:20 52.58084 103.75652 6977 ft 269 kts 252°
2026-05-08 09:20 52.57387 103.72794 6979 ft 270 kts 252°
2026-05-08 09:21 52.56688 103.69925 6976 ft 271 kts 251°
2026-05-08 09:21 52.55966 103.67076 6975 ft 270 kts 251°
2026-05-08 09:22 52.51746 103.49961 6980 ft 269 kts 251°
2026-05-08 09:23 52.51044 103.47110 6975 ft 270 kts 252°
2026-05-08 09:23 52.50339 103.44257 6966 ft 269 kts 252°
2026-05-08 09:23 52.49639 103.41412 6967 ft 270 kts 252°
2026-05-08 09:23 52.48937 103.38553 6968 ft 270 kts 252°
2026-05-08 09:24 52.48224 103.35699 6972 ft 270 kts 252°
2026-05-08 09:24 52.47512 103.32849 6972 ft 270 kts 252°
2026-05-08 09:24 52.46796 103.29992 6968 ft 271 kts 252°
2026-05-08 09:24 52.45898 103.27309 6978 ft 266 kts 235°
2026-05-08 09:25 52.44484 103.25473 6961 ft 257 kts 208°
2026-05-08 09:25 52.42748 103.24904 6970 ft 263 kts 180°
2026-05-08 09:25 52.40995 103.25743 6971 ft 266 kts 149°
2026-05-08 09:25 52.39692 103.27828 6974 ft 263 kts 118°
2026-05-08 09:26 52.39129 103.30618 6969 ft 259 kts 96°
2026-05-08 09:26 52.38827 103.33527 6972 ft 261 kts 95°
2026-05-08 09:26 52.38517 103.36444 6970 ft 259 kts 96°
2026-05-08 09:26 52.38196 103.39348 6964 ft 259 kts 97°
2026-05-08 09:27 52.37867 103.42251 6982 ft 260 kts 97°
2026-05-08 09:27 52.37533 103.45157 6974 ft 259 kts 97°
2026-05-08 09:27 52.37197 103.48048 6971 ft 258 kts 97°
2026-05-08 09:27 52.36861 103.50946 6979 ft 260 kts 98°
2026-05-08 09:28 52.36528 103.53805 6983 ft 259 kts 98°
2026-05-08 09:28 52.36186 103.56726 6976 ft 259 kts 98°
2026-05-08 09:28 52.35851 103.59598 6979 ft 260 kts 98°
2026-05-08 09:28 52.35512 103.62497 6972 ft 258 kts 98°
2026-05-08 09:29 52.35174 103.65375 6974 ft 259 kts 98°
2026-05-08 09:29 52.34833 103.68275 6975 ft 260 kts 98°
2026-05-08 09:29 52.34491 103.71172 6976 ft 259 kts 98°
2026-05-08 09:29 52.34148 103.74064 6976 ft 259 kts 98°
2026-05-08 09:30 52.33806 103.76954 6974 ft 259 kts 98°
2026-05-08 09:30 52.33463 103.79845 6982 ft 258 kts 98°
2026-05-08 09:30 52.33120 103.82732 6981 ft 259 kts 98°
2026-05-08 09:30 52.32777 103.85623 6982 ft 260 kts 98°
2026-05-08 09:31 52.32432 103.88522 6978 ft 259 kts 98°
2026-05-08 09:31 52.32087 103.91405 6984 ft 259 kts 98°
2026-05-08 09:31 52.31742 103.94283 6982 ft 257 kts 98°
2026-05-08 09:31 52.31399 103.97141 6925 ft 255 kts 98°
2026-05-08 09:32 52.31061 103.99954 6652 ft 254 kts 98°
2026-05-08 09:32 52.30716 104.02817 6322 ft 254 kts 99°
2026-05-08 09:32 52.30376 104.05634 5995 ft 252 kts 99°
2026-05-08 09:32 52.30041 104.08404 5686 ft 251 kts 99°
2026-05-08 09:33 52.29704 104.11188 5375 ft 249 kts 99°
2026-05-08 09:33 52.29366 104.13972 5010 ft 250 kts 99°
2026-05-08 09:33 52.29027 104.16738 4711 ft 248 kts 99°
2026-05-08 09:33 52.28694 104.19467 4541 ft 241 kts 99°
2026-05-08 09:34 52.28359 104.22212 4499 ft 248 kts 99°
2026-05-08 09:34 52.28024 104.24959 4500 ft 246 kts 99°
2026-05-08 09:34 52.27690 104.27686 4501 ft 245 kts 100°
2026-05-08 09:34 52.27356 104.30395 4502 ft 244 kts 99°
2026-05-08 09:35 52.27018 104.33136 4500 ft 247 kts 99°
2026-05-08 09:35 52.26681 104.35868 4497 ft 244 kts 99°
2026-05-08 09:35 52.26346 104.38580 4503 ft 243 kts 99°
2026-05-08 09:35 52.25991 104.41305 4496 ft 248 kts 105°
2026-05-08 09:36 52.25136 104.43725 4504 ft 253 kts 135°
2026-05-08 09:36 52.23811 104.45561 4468 ft 247 kts 141°
2026-05-08 09:36 52.22474 104.47321 4475 ft 248 kts 141°
2026-05-08 09:36 52.21125 104.49104 4473 ft 250 kts 142°
2026-05-08 09:37 52.19775 104.50893 4473 ft 252 kts 141°
2026-05-08 09:37 52.18428 104.52688 4472 ft 247 kts 141°
2026-05-08 09:37 52.17136 104.54416 4472 ft 233 kts 141°
2026-05-08 09:37 52.15924 104.56035 4467 ft 217 kts 141°
2026-05-08 09:38 52.14806 104.57528 4475 ft 204 kts 141°
2026-05-08 09:38 52.13689 104.59017 4472 ft 208 kts 141°
2026-05-08 09:38 52.12580 104.60498 4479 ft 205 kts 140°
2026-05-08 09:38 52.11781 104.62310 4484 ft 199 kts 104°
2026-05-08 09:39 52.11799 104.64417 4499 ft 175 kts 63°
2026-05-08 09:39 52.12565 104.65808 4484 ft 168 kts 23°
2026-05-08 09:39 52.13667 104.66173 4481 ft 162 kts 355°
2026-05-08 09:39 52.14804 104.66142 4475 ft 163 kts 358°
2026-05-08 09:40 52.15920 104.66216 4474 ft 161 kts
2026-05-08 09:40 52.17032 104.66334 4478 ft 159 kts
2026-05-08 09:40 52.18149 104.66470 4481 ft 161 kts
2026-05-08 09:40 52.19219 104.66175 4478 ft 156 kts 330°
2026-05-08 09:41 52.19948 104.64940 4474 ft 147 kts 297°
2026-05-08 09:41 52.20293 104.63552 4474 ft 122 kts 294°
2026-05-08 09:41 52.20623 104.62293 4475 ft 118 kts 295°
2026-05-08 09:41 52.20955 104.61055 4473 ft 120 kts 295°
2026-05-08 09:42 52.21288 104.59817 4478 ft 120 kts 295°
2026-05-08 09:42 52.21614 104.58602 4451 ft 113 kts 296°
2026-05-08 09:42 52.21930 104.57425 4193 ft 114 kts 296°
2026-05-08 09:42 52.22246 104.56232 3858 ft 117 kts 295°
2026-05-08 09:43 52.22462 104.55428 3656 ft 116 kts 295°
2026-05-08 09:43 52.22784 104.54224 3439 ft 114 kts 295°
2026-05-08 09:43 52.23110 104.53026 3182 ft 117 kts 295°
2026-05-08 09:43 52.23446 104.51800 3095 ft 119 kts 296°
2026-05-08 09:44 52.23773 104.50595 2996 ft 116 kts 297°
2026-05-08 09:44 52.24213 104.49006 2787 ft 108 kts 295°
2026-05-08 09:44 52.24509 104.47903 2707 ft 108 kts 295°
2026-05-08 09:44 52.24696 104.47104 2513 ft 112 kts 293°
2026-05-08 09:45 52.25000 104.45878 2355 ft 119 kts 295°
2026-05-08 09:45 52.25336 104.44621 2124 ft 122 kts 296°
2026-05-08 09:45 52.25680 104.43328 1995 ft 125 kts 294°
2026-05-08 09:45 52.26030 104.42032 1829 ft 125 kts 295°
2026-05-08 09:46 52.26371 104.40753 1678 ft 116 kts 294°
2026-05-08 09:46 52.26653 104.39705 1650 ft 75 kts 294°
2026-05-08 09:46 52.26825 104.39053 1651 ft 59 kts 293°
2026-05-08 09:46 52.26980 104.38468 1649 ft 54 kts 294°
2026-05-08 09:47 52.27047 104.38174 1652 ft 16 kts 267°
2026-05-08 09:47 52.26965 104.38056 1651 ft 19 kts 207°
2026-05-08 09:47 52.26935 104.38033 1651 ft 0 kts 201°
2026-05-08 09:49 52.26921 104.38024 1651 ft 6 kts 202°
2026-05-08 09:49 52.26863 104.37981 1651 ft 11 kts 210°
2026-05-08 09:49 52.26846 104.37965 1651 ft 0 kts 210°
2026-05-08 09:49 52.26831 104.37949 1651 ft 6 kts 214°
2026-05-08 09:50 52.26787 104.37876 1651 ft 9 kts 232°
2026-05-08 09:50 52.26764 104.37822 1651 ft 2 kts 238°
2026-05-08 09:50 52.26745 104.37751 1651 ft 10 kts 271°
2026-05-08 09:50 52.26749 104.37730 1651 ft 1 kts 287°
2026-05-08 09:51 52.26750 104.37724 1651 ft 0 kts 287°
2026-05-08 09:51 52.26721 104.37679 1651 ft 0 kts 207°